Find Starlink 5903

NORAD ID: 55996 Int'l Des: 2023-042 Owner: SPXS Country: US Constellation: starlink operational
LEOCIRCULAR

Live Position

Loading 3D Globe...

About Starlink 5903

Description loading...

Upcoming Passes

Passes for default location (London). Set your location on the main map for personalized predictions.

Altitude History

Loading altitude history...

Two-Line Element Set

1 55996U 23042L 26122.04066838 .00000666 00000-0 34524-4 0 9993
2 55996 43.0056 117.8951 0001792 285.8410 74.2244 15.26742726171029
Epoch: May 2, 2026 • Age: 13 hours

Current Status

Altitude 486.1 km
Velocity 7.62 km/s
Sub-Earth Point -2.97°S, 137.69°W
Launch Date Mar 24, 2023
Age 3.1 years
Type internet

Technical Details

Classification Payload
Mass 305.00 kg
Dry Mass 290.00 kg
Total Mass 305.00 kg
Length 0.20 m
Diameter 2.80 m
Span 9.00 m
Shape Box + pan
Manufacturer SPXS
Bus Type Starlink
Phase Status In Orbit
Owner/State SPXS/US

Most Searched